Notices

What's New in latest Release from April 7th, 2021:

- Updated Glossary, including Speed of Maximum Gust, and Total Hourly Precipitation

- Updated national and regional climate services offices contacts and prices information

- Addition of station inventory lists for 1981-2010, 1971-2000, and 1961-1990 Normals.

If you haven't already, please take our survey and provide feedback about our website: https://eccc.sondage-survey.ca/f/LanguageSelection.aspx?s=442ca660-fcf1-47c0-95a9-59707d6fd709

Hourly Data Report for September 09, 2017

VICTORIA UNIVERSITY CS
BRITISH COLUMBIA

48°27'25.200" N
123°18'16.600" W
60.10 m
1018598
71783
WYJ

Download Data

Hourly Data (September 2017)
Hourly Data Report for September 9, 2017
TIME
LST
Temp Definition
°C
Dew Point Definition
°C
Rel Hum Definition
%
Precip. Amount Definition
mm

Wind Dir Definition
10's deg

Wind Spd Definition
km/h
Visibility Definition
km
Stn Press Definition
kPa
Hmdx Definition


Wind Chill Definition


Weather Definition


00:00 15.1 8.1 63 0.0 23 6   100.67     LegendNANA
01:00 14.6 6.5 58 0.0 24 7   100.67     LegendNANA
02:00 14.9 6.6 57 0.0 25 7   100.68     LegendNANA
03:00 14.7 8.3 65 0.0 23 6   100.70     LegendNANA
04:00 14.4 9.2 71 0.0 23 5   100.72     LegendNANA
05:00 13.7 9.5 76 0.0 10 2   100.79     LegendNANA
06:00 13.0 10.0 82 0.0 11 2   100.87     LegendNANA
07:00 12.8 11.2 90 0.3 22 4   100.91     LegendNANA
08:00 12.9 11.6 92 1.0 16 2   100.91     LegendNANA
09:00 12.1 11.3 95 0.5 13 1   100.93     LegendNANA
10:00 13.1 11.6 91 0.7 7 1   100.96     LegendNANA
11:00 13.9 12.8 93 1.0 7 2   100.97     LegendNANA
12:00 14.0 13.0 94 1.2 9 3   100.97     LegendNANA
13:00 14.1 12.9 93 0.2 10 5   100.97     LegendNANA
14:00 13.6 12.7 95 0.0 30 3   101.02     LegendNANA
15:00 13.8 12.7 93 0.0 8 4   101.08     LegendNANA
16:00 13.9 12.6 92 0.0 14 2   101.13     LegendNANA
17:00 13.8 12.5 92 0.0 12 1   101.19     LegendNANA
18:00 13.7 12.6 93 0.0 21 5   101.23     LegendNANA
19:00 13.0 12.2 95 0.0 24 5   101.26     LegendNANA
20:00 12.5 11.9 96 0.0 22 7   101.30     LegendNANA
21:00 12.0 11.3 96 0.0 27 4   101.36     LegendNANA
22:00 12.5 11.5 94 0.0 25 6   101.39     LegendNANA
23:00 12.3 11.2 93 0.0 26 5   101.44     LegendNANA

Notes on Data Quality.

Legend

  • E = Estimated
  • M = Missing
  • NA = Not Available*
  • [empty] = Indicates an unobserved value
Date modified: